Station Historical Data
Daily Summary for March 21, 2012 Units:  Metric    English   Both
« Previous Day
Next Day »
Daily Weekly Monthly Yearly Custom
  High: Low: Average:
Temperature: 24.8 °C 17.6 °C 21.6 °C
Dew Point: 17.6 °C 12.4 °C 14.7 °C
Humidity: 79% 56% 65%
Wind Speed: 29km/h 3.2km/h 12.6km/h
Wind Gust: 38.6km/h - -
Wind- - ESE
Pressure: 1017.5 hPa 1014.4 hPa -
Precipitation: 0 mm    
Historical Graphs
 
 
Tabular Data for March 21, 2012
Time Temperature Dew Point Pressure Wind Wind Speed Wind Gust Humidity Rainfall Rate (Hourly) Conditions
00:00 21.8 °C 12.9 °C 1015.5 hPa East 8 km/h 12.9 km/h 57% 0 mm
00:01 21.8 °C 12.9 °C 1015.5 hPa ESE 11.3 km/h 14.5 km/h 57% 0 mm
00:06 21.8 °C 12.9 °C 1015.5 hPa ESE 12.9 km/h 14.5 km/h 57% 0 mm
00:11 21.8 °C 12.9 °C 1015.5 hPa SE 9.7 km/h 16.1 km/h 57% 0 mm
00:16 21.7 °C 12.8 °C 1015.8 hPa ESE 6.4 km/h 12.9 km/h 57% 0 mm
00:21 21.7 °C 12.8 °C 1015.8 hPa East 11.3 km/h 14.5 km/h 57% 0 mm
00:26 21.7 °C 12.8 °C 1015.8 hPa ESE 9.7 km/h 12.9 km/h 57% 0 mm
00:31 21.7 °C 12.8 °C 1015.8 hPa ESE 11.3 km/h 12.9 km/h 57% 0 mm
00:36 21.6 °C 12.7 °C 1015.8 hPa East 11.3 km/h 12.9 km/h 57% 0 mm
00:41 21.4 °C 12.6 °C 1015.8 hPa ESE 6.4 km/h 12.9 km/h 57% 0 mm
00:46 21.4 °C 12.8 °C 1015.8 hPa SE 6.4 km/h 12.9 km/h 58% 0 mm
00:51 21.3 °C 12.7 °C 1015.5 hPa SE 8 km/h 11.3 km/h 58% 0 mm
00:56 21.2 °C 12.6 °C 1015.5 hPa SE 9.7 km/h 14.5 km/h 58% 0 mm
01:01 21.1 °C 12.6 °C 1015.8 hPa ESE 6.4 km/h 14.5 km/h 58% 0 mm
01:07 21.1 °C 12.7 °C 1015.8 hPa SE 8 km/h 14.5 km/h 59% 0 mm
01:12 20.9 °C 12.7 °C 1015.8 hPa SE 8 km/h 11.3 km/h 59% 0 mm
01:17 20.8 °C 12.8 °C 1015.8 hPa SE 9.7 km/h 12.9 km/h 60% 0 mm
01:22 20.8 °C 12.7 °C 1015.8 hPa ESE 11.3 km/h 12.9 km/h 60% 0 mm
01:27 20.7 °C 12.7 °C 1015.8 hPa ESE 8 km/h 11.3 km/h 60% 0 mm
01:32 20.7 °C 12.6 °C 1015.8 hPa ESE 12.9 km/h 12.9 km/h 60% 0 mm
01:37 20.7 °C 12.6 °C 1015.8 hPa ESE 8 km/h 11.3 km/h 60% 0 mm
01:42 20.7 °C 12.6 °C 1016.1 hPa ESE 8 km/h 16.1 km/h 60% 0 mm
01:47 20.7 °C 12.6 °C 1016.1 hPa SE 11.3 km/h 14.5 km/h 60% 0 mm
01:52 20.6 °C 12.6 °C 1016.1 hPa ESE 8 km/h 12.9 km/h 60% 0 mm
01:57 20.4 °C 12.7 °C 1016.1 hPa SE 6.4 km/h 14.5 km/h 61% 0 mm
02:02 20.3 °C 12.6 °C 1015.8 hPa SE 4.8 km/h 11.3 km/h 61% 0 mm
02:07 20.2 °C 12.4 °C 1016.1 hPa East 8 km/h 12.9 km/h 61% 0 mm
02:12 20.2 °C 12.7 °C 1016.1 hPa SE 8 km/h 9.7 km/h 62% 0 mm
02:17 20.1 °C 12.6 °C 1016.1 hPa ESE 9.7 km/h 12.9 km/h 62% 0 mm
02:22 20.2 °C 12.7 °C 1016.1 hPa ESE 9.7 km/h 12.9 km/h 62% 0 mm
02:27 20.2 °C 12.7 °C 1016.1 hPa SE 8 km/h 12.9 km/h 62% 0 mm
02:32 20.2 °C 12.7 °C 1016.1 hPa ESE 8 km/h 12.9 km/h 62% 0 mm
02:37 20.2 °C 12.4 °C 1016.1 hPa ESE 9.7 km/h 12.9 km/h 61% 0 mm
02:42 20.2 °C 12.7 °C 1016.1 hPa SE 6.4 km/h 12.9 km/h 62% 0 mm
02:47 20 °C 12.5 °C 1016.1 hPa ESE 6.4 km/h 9.7 km/h 62% 0 mm
02:52 19.9 °C 12.7 °C 1016.1 hPa ESE 11.3 km/h 12.9 km/h 63% 0 mm
02:57 19.9 °C 12.7 °C 1015.8 hPa ESE 8 km/h 14.5 km/h 63% 0 mm
03:02 19.9 °C 12.4 °C 1016.1 hPa ESE 11.3 km/h 12.9 km/h 62% 0 mm
03:07 20 °C 12.5 °C 1016.1 hPa ESE 8 km/h 16.1 km/h 62% 0 mm
03:12 20 °C 12.5 °C 1016.1 hPa ESE 11.3 km/h 16.1 km/h 62% 0 mm
03:17 19.9 °C 12.7 °C 1016.1 hPa ESE 9.7 km/h 11.3 km/h 63% 0 mm
03:22 19.9 °C 12.7 °C 1015.8 hPa SE 9.7 km/h 19.3 km/h 63% 0 mm
03:27 19.9 °C 12.4 °C 1015.8 hPa SE 9.7 km/h 17.7 km/h 62% 0 mm
03:32 19.9 °C 12.7 °C 1015.8 hPa ESE 9.7 km/h 12.9 km/h 63% 0 mm
03:37 19.9 °C 12.7 °C 1015.8 hPa ESE 9.7 km/h 14.5 km/h 63% 0 mm
03:42 20 °C 12.5 °C 1015.8 hPa East 9.7 km/h 17.7 km/h 62% 0 mm
03:47 20.1 °C 12.6 °C 1015.8 hPa ESE 11.3 km/h 14.5 km/h 62% 0 mm
03:52 20.1 °C 12.6 °C 1015.8 hPa ESE 16.1 km/h 16.1 km/h 62% 0 mm
03:57 20 °C 12.5 °C 1015.5 hPa ESE 12.9 km/h 16.1 km/h 62% 0 mm
04:02 20 °C 12.5 °C 1015.5 hPa ESE 14.5 km/h 17.7 km/h 62% 0 mm
04:07 20 °C 12.5 °C 1015.5 hPa SE 16.1 km/h 17.7 km/h 62% 0 mm
04:12 20 °C 12.8 °C 1015.8 hPa SE 8 km/h 14.5 km/h 63% 0 mm
04:18 20 °C 12.5 °C 1015.5 hPa SE 8 km/h 19.3 km/h 62% 0 mm
04:23 19.8 °C 12.6 °C 1015.5 hPa ESE 11.3 km/h 16.1 km/h 63% 0 mm
04:28 19.7 °C 12.7 °C 1015.5 hPa SE 9.7 km/h 14.5 km/h 64% 0 mm
04:33 19.6 °C 12.6 °C 1015.8 hPa ESE 9.7 km/h 12.9 km/h 64% 0 mm
04:38 19.5 °C 12.8 °C 1015.8 hPa SE 11.3 km/h 16.1 km/h 65% 0 mm
04:43 19.5 °C 12.8 °C 1015.5 hPa ESE 9.7 km/h 14.5 km/h 65% 0 mm
04:48 19.6 °C 12.8 °C 1015.5 hPa SE 12.9 km/h 16.1 km/h 65% 0 mm
04:53 19.6 °C 12.8 °C 1015.5 hPa East 11.3 km/h 16.1 km/h 65% 0 mm
04:58 19.5 °C 12.8 °C 1015.5 hPa ESE 9.7 km/h 16.1 km/h 65% 0 mm
05:03 19.4 °C 12.9 °C 1015.5 hPa ESE 12.9 km/h 19.3 km/h 66% 0 mm
05:08 19.6 °C 12.9 °C 1015.5 hPa ESE 12.9 km/h 20.9 km/h 65% 0 mm
05:13 19.6 °C 13.1 °C 1015.8 hPa SE 8 km/h 20.9 km/h 66% 0 mm
05:18 19.4 °C 12.9 °C 1015.8 hPa SE 11.3 km/h 14.5 km/h 66% 0 mm
05:23 19.4 °C 13.1 °C 1015.8 hPa ESE 12.9 km/h 17.7 km/h 67% 0 mm
05:28 19.4 °C 13.1 °C 1015.8 hPa ESE 14.5 km/h 19.3 km/h 67% 0 mm
05:33 19.4 °C 13.2 °C 1015.8 hPa ESE 17.7 km/h 17.7 km/h 67% 0 mm
05:38 19.4 °C 13.2 °C 1015.8 hPa ESE 9.7 km/h 20.9 km/h 67% 0 mm
05:43 19.4 °C 13.3 °C 1015.8 hPa ESE 14.5 km/h 16.1 km/h 68% 0 mm
05:48 19.3 °C 13.2 °C 1016.1 hPa SE 6.4 km/h 17.7 km/h 68% 0 mm
05:53 19.2 °C 13.4 °C 1016.1 hPa East 11.3 km/h 16.1 km/h 69% 0 mm
05:58 19.2 °C 13.4 °C 1016.1 hPa SE 11.3 km/h 16.1 km/h 69% 0 mm
06:03 19.2 °C 13.3 °C 1016.1 hPa SE 17.7 km/h 17.7 km/h 69% 0 mm
06:08 19.1 °C 13.5 °C 1016.1 hPa SE 14.5 km/h 14.5 km/h 70% 0 mm
06:13 19.2 °C 13.6 °C 1016.5 hPa ESE 9.7 km/h 16.1 km/h 70% 0 mm
06:18 19.1 °C 13.5 °C 1016.1 hPa SE 9.7 km/h 16.1 km/h 70% 0 mm
06:23 19.1 °C 13.5 °C 1016.1 hPa ESE 12.9 km/h 19.3 km/h 70% 0 mm
06:28 19 °C 13.6 °C 1016.5 hPa ESE 9.7 km/h 16.1 km/h 71% 0 mm
06:33 18.9 °C 13.6 °C 1016.5 hPa SE 12.9 km/h 14.5 km/h 71% 0 mm
06:38 19 °C 13.6 °C 1016.5 hPa SE 8 km/h 16.1 km/h 71% 0 mm
06:44 18.8 °C 13.6 °C 1016.1 hPa ESE 12.9 km/h 19.3 km/h 72% 0 mm
06:49 18.8 °C 13.6 °C 1016.5 hPa ESE 11.3 km/h 17.7 km/h 72% 0 mm
06:54 18.7 °C 13.7 °C 1016.5 hPa SE 16.1 km/h 16.1 km/h 73% 0 mm
06:59 18.6 °C 13.7 °C 1016.5 hPa East 14.5 km/h 17.7 km/h 73% 0 mm
07:04 18.6 °C 13.6 °C 1016.5 hPa SE 8 km/h 14.5 km/h 73% 0 mm
07:09 18.6 °C 13.8 °C 1016.5 hPa ESE 11.3 km/h 16.1 km/h 74% 0 mm
07:14 18.4 °C 13.7 °C 1016.5 hPa ESE 8 km/h 16.1 km/h 74% 0 mm
07:19 18.3 °C 13.6 °C 1016.8 hPa SE 8 km/h 16.1 km/h 74% 0 mm
07:24 18.2 °C 13.7 °C 1016.8 hPa ESE 6.4 km/h 11.3 km/h 75% 0 mm
07:29 18.1 °C 13.8 °C 1016.8 hPa ESE 9.7 km/h 11.3 km/h 76% 0 mm
07:34 18.1 °C 13.8 °C 1016.8 hPa ESE 8 km/h 11.3 km/h 76% 0 mm
07:39 17.9 °C 13.7 °C 1016.8 hPa SE 6.4 km/h 11.3 km/h 76% 0 mm
07:44 17.8 °C 13.8 °C 1016.8 hPa ESE 8 km/h 9.7 km/h 77% 0 mm
07:49 17.7 °C 13.7 °C 1016.8 hPa ESE 6.4 km/h 8 km/h 77% 0 mm
07:54 17.6 °C 13.7 °C 1016.8 hPa ESE 3.2 km/h 11.3 km/h 78% 0 mm
07:59 17.6 °C 13.7 °C 1016.8 hPa ESE 8 km/h 9.7 km/h 78% 0 mm
08:04 17.6 °C 13.7 °C 1017.2 hPa ESE 8 km/h 9.7 km/h 78% 0 mm
08:09 17.6 °C 13.9 °C 1017.2 hPa SE 6.4 km/h 9.7 km/h 79% 0 mm
08:14 17.8 °C 13.9 °C 1017.2 hPa ESE 11.3 km/h 11.3 km/h 78% 0 mm
08:19 17.9 °C 14.1 °C 1017.2 hPa ESE 8 km/h 11.3 km/h 78% 0 mm
08:24 18.1 °C 14 °C 1016.8 hPa ESE 6.4 km/h 8 km/h 77% 0 mm
08:29 18.2 °C 14.3 °C 1017.2 hPa ESE 6.4 km/h 9.7 km/h 78% 0 mm
08:34 18.2 °C 14.1 °C 1017.2 hPa East 8 km/h 9.7 km/h 77% 0 mm
08:39 18.4 °C 14.3 °C 1017.2 hPa ESE 8 km/h 11.3 km/h 77% 0 mm
08:44 18.5 °C 14.4 °C 1017.2 hPa ESE 9.7 km/h 12.9 km/h 77% 0 mm
08:49 18.7 °C 14.3 °C 1017.2 hPa ESE 11.3 km/h 12.9 km/h 76% 0 mm
08:54 18.8 °C 14.5 °C 1017.2 hPa East 11.3 km/h 14.5 km/h 76% 0 mm
08:59 19 °C 14.7 °C 1017.2 hPa ESE 8 km/h 12.9 km/h 76% 0 mm
09:04 19.1 °C 14.6 °C 1017.5 hPa East 9.7 km/h 14.5 km/h 75% 0 mm
09:09 19.3 °C 14.7 °C 1017.5 hPa ESE 12.9 km/h 16.1 km/h 75% 0 mm
09:14 19.4 °C 14.8 °C 1017.2 hPa ENE 9.7 km/h 17.7 km/h 75% 0 mm
09:19 19.6 °C 15.2 °C 1017.5 hPa ESE 6.4 km/h 11.3 km/h 76% 0 mm
09:24 19.6 °C 15.1 °C 1017.5 hPa ESE 9.7 km/h 19.3 km/h 75% 0 mm
09:29 19.8 °C 15.2 °C 1017.2 hPa East 14.5 km/h 17.7 km/h 75% 0 mm
09:34 19.9 °C 15.1 °C 1017.2 hPa ESE 12.9 km/h 17.7 km/h 74% 0 mm
09:39 20 °C 15.2 °C 1017.5 hPa ESE 12.9 km/h 20.9 km/h 74% 0 mm
09:44 20.1 °C 15.3 °C 1017.2 hPa ESE 9.7 km/h 19.3 km/h 74% 0 mm
09:49 20.2 °C 15.4 °C 1017.2 hPa ESE 12.9 km/h 22.5 km/h 74% 0 mm
09:54 20.4 °C 15.4 °C 1017.2 hPa ESE 12.9 km/h 19.3 km/h 73% 0 mm
09:59 20.6 °C 15.3 °C 1017.2 hPa ESE 24.1 km/h 24.1 km/h 72% 0 mm
10:04 20.7 °C 15.9 °C 1017.2 hPa SE 11.3 km/h 19.3 km/h 74% 0 mm
10:09 20.7 °C 15.7 °C 1017.5 hPa ESE 14.5 km/h 20.9 km/h 73% 0 mm
10:14 20.9 °C 15.9 °C 1017.5 hPa ESE 17.7 km/h 19.3 km/h 73% 0 mm
10:19 21.1 °C 16.1 °C 1017.5 hPa SE 19.3 km/h 22.5 km/h 73% 0 mm
10:24 21.2 °C 15.7 °C 1017.5 hPa ESE 17.7 km/h 29 km/h 71% 0 mm
10:29 21.3 °C 15.8 °C 1017.5 hPa ESE 25.7 km/h 25.7 km/h 71% 0 mm
10:35 21.4 °C 15.9 °C 1017.5 hPa SE 12.9 km/h 24.1 km/h 71% 0 mm
10:40 21.5 °C 16 °C 1017.5 hPa ESE 24.1 km/h 27.4 km/h 71% 0 mm
10:41 21.6 °C 15.8 °C 1017.5 hPa SE 17.7 km/h 27.4 km/h 70% 0 mm
10:46 21.7 °C 15.9 °C 1017.5 hPa ESE 19.3 km/h 25.7 km/h 70% 0 mm
10:51 21.8 °C 16.1 °C 1017.5 hPa SE 20.9 km/h 20.9 km/h 70% 0 mm
10:56 22 °C 15.8 °C 1017.5 hPa SE 11.3 km/h 24.1 km/h 68% 0 mm
11:01 22.1 °C 15.9 °C 1017.5 hPa SE 16.1 km/h 20.9 km/h 68% 0 mm
11:06 22.3 °C 16.3 °C 1017.5 hPa SE 24.1 km/h 25.7 km/h 69% 0 mm
11:11 22.3 °C 15.9 °C 1017.5 hPa SE 17.7 km/h 24.1 km/h 67% 0 mm
11:16 22.3 °C 16.2 °C 1017.5 hPa ESE 17.7 km/h 27.4 km/h 68% 0 mm
11:21 22.6 °C 16.3 °C 1017.5 hPa ESE 25.7 km/h 25.7 km/h 68% 0 mm
11:26 22.6 °C 16.3 °C 1017.5 hPa SE 19.3 km/h 22.5 km/h 68% 0 mm
11:31 22.6 °C 16.7 °C 1017.5 hPa ESE 20.9 km/h 33.8 km/h 69% 0 mm
11:37 22.7 °C 16.4 °C 1017.5 hPa SE 17.7 km/h 29 km/h 68% 0 mm
11:42 22.8 °C 16.6 °C 1017.5 hPa SE 19.3 km/h 27.4 km/h 68% 0 mm
11:47 23 °C 16.8 °C 1017.2 hPa ESE 20.9 km/h 27.4 km/h 68% 0 mm
11:52 23.1 °C 16.8 °C 1017.2 hPa SE 19.3 km/h 27.4 km/h 68% 0 mm
11:57 23.1 °C 16.6 °C 1017.5 hPa ESE 20.9 km/h 27.4 km/h 67% 0 mm
12:02 23.2 °C 17.4 °C 1017.2 hPa ESE 14.5 km/h 20.9 km/h 70% 0 mm
12:07 23.3 °C 16.8 °C 1017.2 hPa ESE 29 km/h 33.8 km/h 67% 0 mm
12:12 23.3 °C 16.8 °C 1017.2 hPa ESE 12.9 km/h 25.7 km/h 67% 0 mm
12:17 23.6 °C 17.1 °C 1016.8 hPa SE 17.7 km/h 24.1 km/h 67% 0 mm
12:22 23.7 °C 16.7 °C 1016.8 hPa ESE 24.1 km/h 25.7 km/h 65% 0 mm
12:27 23.7 °C 17.2 °C 1016.8 hPa ESE 22.5 km/h 24.1 km/h 67% 0 mm
12:32 23.8 °C 17.6 °C 1016.8 hPa SE 17.7 km/h 19.3 km/h 68% 0 mm
12:37 23.8 °C 16.4 °C 1016.8 hPa ESE 17.7 km/h 29 km/h 63% 0 mm
12:42 24 °C 17.3 °C 1016.8 hPa ESE 24.1 km/h 24.1 km/h 66% 0 mm
12:47 24.2 °C 17.2 °C 1016.8 hPa SE 19.3 km/h 20.9 km/h 65% 0 mm
12:52 23.9 °C 17.2 °C 1016.8 hPa SE 20.9 km/h 24.1 km/h 66% 0 mm
12:57 23.8 °C 16.6 °C 1016.8 hPa SE 17.7 km/h 25.7 km/h 64% 0 mm
13:02 23.7 °C 16.4 °C 1016.8 hPa SE 12.9 km/h 29 km/h 64% 0 mm
13:07 23.6 °C 17.1 °C 1016.8 hPa SE 16.1 km/h 24.1 km/h 67% 0 mm
13:12 24 °C 16.8 °C 1016.8 hPa SE 19.3 km/h 22.5 km/h 64% 0 mm
13:17 24 °C 16.8 °C 1016.8 hPa ESE 19.3 km/h 24.1 km/h 64% 0 mm
13:22 24 °C 16.6 °C 1016.8 hPa SE 20.9 km/h 38.6 km/h 63% 0 mm
13:27 23.9 °C 16.7 °C 1017.2 hPa SSE 20.9 km/h 27.4 km/h 64% 0 mm
13:33 23.7 °C 16.7 °C 1017.2 hPa SE 17.7 km/h 27.4 km/h 65% 0 mm
13:38 23.6 °C 16.8 °C 1016.8 hPa ESE 24.1 km/h 35.4 km/h 66% 0 mm
13:43 23.5 °C 16.8 °C 1016.8 hPa ESE 25.7 km/h 25.7 km/h 66% 0 mm
13:48 23.5 °C 16.6 °C 1016.8 hPa ESE 22.5 km/h 25.7 km/h 65% 0 mm
13:53 23.6 °C 16.6 °C 1016.8 hPa East 9.7 km/h 20.9 km/h 65% 0 mm
13:58 23.7 °C 17.2 °C 1016.8 hPa SSE 11.3 km/h 14.5 km/h 67% 0 mm
14:03 23.9 °C 16.5 °C 1016.8 hPa SE 20.9 km/h 35.4 km/h 63% 0 mm
14:08 23.9 °C 16.7 °C 1016.8 hPa SE 8 km/h 24.1 km/h 64% 0 mm
14:13 24.1 °C 17.1 °C 1016.8 hPa SE 14.5 km/h 27.4 km/h 65% 0 mm
14:18 24.2 °C 17.2 °C 1016.5 hPa ESE 16.1 km/h 22.5 km/h 65% 0 mm
14:23 24.3 °C 17.3 °C 1016.5 hPa ESE 22.5 km/h 27.4 km/h 65% 0 mm
14:28 24.1 °C 16.6 °C 1016.8 hPa SE 20.9 km/h 29 km/h 63% 0 mm
14:33 24.2 °C 16.9 °C 1016.5 hPa SE 27.4 km/h 27.4 km/h 64% 0 mm
14:38 24.3 °C 17.3 °C 1016.5 hPa SSE 22.5 km/h 25.7 km/h 65% 0 mm
14:43 24.4 °C 16.9 °C 1016.5 hPa ESE 17.7 km/h 30.6 km/h 63% 0 mm
14:48 24.4 °C 16.9 °C 1016.1 hPa ESE 16.1 km/h 27.4 km/h 63% 0 mm
14:53 24.3 °C 16.8 °C 1016.1 hPa SE 17.7 km/h 25.7 km/h 63% 0 mm
14:58 24.3 °C 16.8 °C 1015.8 hPa ESE 24.1 km/h 25.7 km/h 63% 0 mm
15:03 24.3 °C 16.6 °C 1016.1 hPa SE 22.5 km/h 24.1 km/h 62% 0 mm
15:08 24.3 °C 16.1 °C 1015.8 hPa SE 12.9 km/h 35.4 km/h 60% 0 mm
15:13 24.5 °C 16 °C 1015.8 hPa SSE 19.3 km/h 24.1 km/h 59% 0 mm
15:18 24.5 °C 16.2 °C 1015.8 hPa SE 24.1 km/h 27.4 km/h 60% 0 mm
15:23 24.6 °C 16.6 °C 1015.8 hPa ESE 22.5 km/h 29 km/h 61% 0 mm
15:28 24.7 °C 16.4 °C 1015.8 hPa SE 16.1 km/h 19.3 km/h 60% 0 mm
15:33 24.8 °C 17.3 °C 1015.8 hPa ESE 14.5 km/h 14.5 km/h 63% 0 mm
15:38 24.8 °C 16.8 °C 1015.5 hPa SE 17.7 km/h 20.9 km/h 61% 0 mm
15:43 24.7 °C 16.7 °C 1015.5 hPa ESE 16.1 km/h 24.1 km/h 61% 0 mm
15:49 24.7 °C 16.1 °C 1015.5 hPa ESE 22.5 km/h 22.5 km/h 59% 0 mm
15:54 24.6 °C 16.3 °C 1015.1 hPa SE 17.7 km/h 27.4 km/h 60% 0 mm
15:59 24.6 °C 16.3 °C 1015.5 hPa SE 11.3 km/h 24.1 km/h 60% 0 mm
16:04 24.6 °C 16.3 °C 1015.1 hPa ESE 16.1 km/h 27.4 km/h 60% 0 mm
16:09 24.6 °C 16 °C 1015.1 hPa ESE 17.7 km/h 22.5 km/h 59% 0 mm
16:14 24.6 °C 16.6 °C 1015.1 hPa SSE 12.9 km/h 22.5 km/h 61% 0 mm
16:19 24.6 °C 16.3 °C 1015.5 hPa East 24.1 km/h 24.1 km/h 60% 0 mm
16:24 24.4 °C 15.7 °C 1015.1 hPa ESE 19.3 km/h 27.4 km/h 58% 0 mm
16:29 24.4 °C 15.9 °C 1015.5 hPa ESE 14.5 km/h 24.1 km/h 59% 0 mm
16:34 24.4 °C 15.9 °C 1015.5 hPa ESE 16.1 km/h 20.9 km/h 59% 0 mm
16:39 24.4 °C 16.2 °C 1015.1 hPa SE 22.5 km/h 22.5 km/h 60% 0 mm
16:44 24.4 °C 15.7 °C 1015.1 hPa ESE 14.5 km/h 24.1 km/h 58% 0 mm
16:49 24.4 °C 15.6 °C 1015.1 hPa SE 11.3 km/h 25.7 km/h 58% 0 mm
16:54 24.3 °C 15.8 °C 1015.5 hPa SE 14.5 km/h 24.1 km/h 59% 0 mm
16:59 24.3 °C 15.5 °C 1015.1 hPa ESE 16.1 km/h 25.7 km/h 58% 0 mm
17:04 24.2 °C 15.9 °C 1015.1 hPa ESE 16.1 km/h 20.9 km/h 60% 0 mm
17:09 24.1 °C 15.6 °C 1015.1 hPa ESE 14.5 km/h 17.7 km/h 59% 0 mm
17:14 24.1 °C 15.8 °C 1015.1 hPa SE 8 km/h 16.1 km/h 60% 0 mm
17:19 24.1 °C 15.6 °C 1015.1 hPa SE 14.5 km/h 29 km/h 59% 0 mm
17:24 24.1 °C 15.6 °C 1015.1 hPa SE 12.9 km/h 20.9 km/h 59% 0 mm
17:29 24.1 °C 15.6 °C 1015.1 hPa SE 14.5 km/h 24.1 km/h 59% 0 mm
17:34 24 °C 15.2 °C 1015.1 hPa ESE 16.1 km/h 24.1 km/h 58% 0 mm
17:39 24 °C 15.2 °C 1015.1 hPa East 17.7 km/h 17.7 km/h 58% 0 mm
17:44 24.1 °C 15.3 °C 1015.1 hPa SE 14.5 km/h 20.9 km/h 58% 0 mm
17:49 24 °C 15.2 °C 1015.1 hPa SE 19.3 km/h 20.9 km/h 58% 0 mm
17:54 24.1 °C 15 °C 1015.1 hPa ESE 16.1 km/h 24.1 km/h 57% 0 mm
17:59 24 °C 15.2 °C 1014.8 hPa SE 14.5 km/h 17.7 km/h 58% 0 mm
18:04 23.8 °C 15.1 °C 1014.8 hPa ESE 12.9 km/h 16.1 km/h 58% 0 mm
18:09 23.8 °C 15.1 °C 1014.8 hPa ESE 12.9 km/h 17.7 km/h 58% 0 mm
18:14 23.9 °C 15.2 °C 1014.8 hPa SE 9.7 km/h 17.7 km/h 58% 0 mm
18:19 24 °C 15.2 °C 1014.8 hPa ESE 9.7 km/h 17.7 km/h 58% 0 mm
18:24 24.1 °C 14.7 °C 1014.8 hPa SE 12.9 km/h 25.7 km/h 56% 0 mm
18:29 24.1 °C 15.1 °C 1014.8 hPa ESE 11.3 km/h 25.7 km/h 57% 0 mm
18:34 24.1 °C 15.3 °C 1014.8 hPa East 16.1 km/h 22.5 km/h 58% 0 mm
18:40 23.9 °C 14.9 °C 1014.4 hPa SE 16.1 km/h 24.1 km/h 57% 0 mm
18:45 23.9 °C 14.9 °C 1014.8 hPa SE 12.9 km/h 19.3 km/h 57% 0 mm
18:50 23.7 °C 15.2 °C 1014.4 hPa ESE 9.7 km/h 14.5 km/h 59% 0 mm
18:55 23.6 °C 15.1 °C 1014.4 hPa SE 9.7 km/h 16.1 km/h 59% 0 mm
19:00 23.7 °C 14.9 °C 1014.4 hPa ESE 11.3 km/h 17.7 km/h 58% 0 mm
19:05 23.6 °C 14.8 °C 1014.8 hPa ESE 6.4 km/h 14.5 km/h 58% 0 mm
19:10 23.4 °C 15 °C 1014.8 hPa SE 11.3 km/h 17.7 km/h 59% 0 mm
19:15 23.4 °C 15 °C 1014.4 hPa East 16.1 km/h 17.7 km/h 59% 0 mm
19:20 23.3 °C 14.8 °C 1014.8 hPa ESE 9.7 km/h 12.9 km/h 59% 0 mm
19:25 23.2 °C 14.7 °C 1014.8 hPa ESE 8 km/h 9.7 km/h 59% 0 mm
19:30 23.2 °C 14.7 °C 1014.8 hPa ESE 9.7 km/h 14.5 km/h 59% 0 mm
19:35 23.1 °C 14.7 °C 1014.8 hPa East 11.3 km/h 11.3 km/h 59% 0 mm
19:40 22.9 °C 14.8 °C 1014.8 hPa ESE 8 km/h 9.7 km/h 60% 0 mm
19:45 22.8 °C 14.6 °C 1014.8 hPa SE 6.4 km/h 12.9 km/h 60% 0 mm
19:46 22.8 °C 14.6 °C 1014.8 hPa ESE 11.3 km/h 12.9 km/h 60% 0 mm
19:51 22.7 °C 14.6 °C 1014.8 hPa ESE 8 km/h 12.9 km/h 60% 0 mm
19:56 22.7 °C 14.6 °C 1014.8 hPa SE 8 km/h 11.3 km/h 60% 0 mm
20:02 22.7 °C 14.8 °C 1014.8 hPa ESE 6.4 km/h 8 km/h 61% 0 mm
20:07 22.4 °C 14.6 °C 1014.8 hPa ESE 3.2 km/h 8 km/h 61% 0 mm
20:11 22.2 °C 14.6 °C 1014.8 hPa ESE 6.4 km/h 8 km/h 62% 0 mm
20:16 22.1 °C 14.7 °C 1014.8 hPa ESE 4.8 km/h 8 km/h 63% 0 mm
20:22 22.1 °C 14.7 °C 1014.8 hPa ESE 6.4 km/h 11.3 km/h 63% 0 mm
20:27 22 °C 14.9 °C 1015.1 hPa East 4.8 km/h 9.7 km/h 64% 0 mm
20:32 21.9 °C 14.8 °C 1015.1 hPa East 6.4 km/h 11.3 km/h 64% 0 mm
20:37 21.8 °C 14.9 °C 1015.1 hPa East 6.4 km/h 8 km/h 65% 0 mm
20:42 21.7 °C 14.9 °C 1015.1 hPa East 6.4 km/h 8 km/h 65% 0 mm
20:47 21.6 °C 15 °C 1015.1 hPa East 4.8 km/h 6.4 km/h 66% 0 mm
20:52 21.5 °C 14.9 °C 1015.1 hPa ESE 6.4 km/h 11.3 km/h 66% 0 mm
20:57 21.4 °C 14.8 °C 1015.1 hPa ESE 4.8 km/h 9.7 km/h 66% 0 mm
21:02 21.4 °C 14.8 °C 1015.5 hPa East 6.4 km/h 12.9 km/h 66% 0 mm
21:07 21.4 °C 14.8 °C 1015.5 hPa ESE 6.4 km/h 9.7 km/h 66% 0 mm
21:12 21.4 °C 14.8 °C 1015.5 hPa ESE 4.8 km/h 12.9 km/h 66% 0 mm
21:17 21.4 °C 14.8 °C 1015.5 hPa East 9.7 km/h 14.5 km/h 66% 0 mm
21:22 21.4 °C 14.8 °C 1015.5 hPa ESE 9.7 km/h 12.9 km/h 66% 0 mm
21:27 21.6 °C 14.9 °C 1015.5 hPa ENE 6.4 km/h 16.1 km/h 66% 0 mm
21:32 21.6 °C 14.8 °C 1015.5 hPa East 11.3 km/h 14.5 km/h 65% 0 mm
21:37 21.6 °C 14.9 °C 1015.5 hPa ESE 9.7 km/h 11.3 km/h 66% 0 mm
21:43 21.7 °C 14.8 °C 1015.5 hPa ESE 6.4 km/h 12.9 km/h 65% 0 mm
21:48 21.6 °C 14.9 °C 1015.8 hPa ESE 4.8 km/h 14.5 km/h 66% 0 mm
21:53 21.4 °C 14.8 °C 1015.8 hPa East 6.4 km/h 9.7 km/h 66% 0 mm
21:58 21.4 °C 14.8 °C 1015.8 hPa ESE 8 km/h 8 km/h 66% 0 mm
22:03 21.3 °C 14.9 °C 1015.8 hPa East 4.8 km/h 8 km/h 67% 0 mm
22:08 21.3 °C 14.7 °C 1016.1 hPa East 8 km/h 12.9 km/h 66% 0 mm
22:13 21.2 °C 14.8 °C 1015.8 hPa ESE 8 km/h 9.7 km/h 67% 0 mm
22:18 21.1 °C 14.7 °C 1016.1 hPa ESE 4.8 km/h 9.7 km/h 67% 0 mm
22:23 21 °C 14.9 °C 1016.1 hPa ESE 9.7 km/h 9.7 km/h 68% 0 mm
22:28 21 °C 14.9 °C 1016.1 hPa East 9.7 km/h 9.7 km/h 68% 0 mm
22:33 21.1 °C 14.7 °C 1016.1 hPa ESE 9.7 km/h 12.9 km/h 67% 0 mm
22:38 21.1 °C 14.7 °C 1016.1 hPa ESE 6.4 km/h 12.9 km/h 67% 0 mm
22:43 21.1 °C 14.7 °C 1016.1 hPa SE 9.7 km/h 12.9 km/h 67% 0 mm
22:48 21 °C 14.7 °C 1016.1 hPa SE 12.9 km/h 14.5 km/h 67% 0 mm
22:53 20.9 °C 14.8 °C 1016.1 hPa SE 4.8 km/h 16.1 km/h 68% 0 mm
22:58 20.9 °C 14.8 °C 1016.1 hPa ESE 8 km/h 16.1 km/h 68% 0 mm
23:03 20.9 °C 14.8 °C 1016.1 hPa ESE 16.1 km/h 22.5 km/h 68% 0 mm
23:08 20.9 °C 14.8 °C 1016.1 hPa SE 9.7 km/h 12.9 km/h 68% 0 mm
23:13 20.9 °C 14.8 °C 1016.1 hPa East 11.3 km/h 17.7 km/h 68% 0 mm
23:18 20.9 °C 14.8 °C 1016.1 hPa ESE 11.3 km/h 17.7 km/h 68% 0 mm
23:23 20.9 °C 14.8 °C 1016.1 hPa ESE 12.9 km/h 17.7 km/h 68% 0 mm
23:28 21 °C 14.9 °C 1016.1 hPa SE 12.9 km/h 17.7 km/h 68% 0 mm
23:33 21.1 °C 15 °C 1016.5 hPa ESE 11.3 km/h 17.7 km/h 68% 0 mm
23:38 21.2 °C 15.1 °C 1016.5 hPa ESE 12.9 km/h 19.3 km/h 68% 0 mm
23:43 21.2 °C 14.8 °C 1016.5 hPa East 11.3 km/h 20.9 km/h 67% 0 mm
23:48 21.2 °C 15.1 °C 1016.5 hPa ESE 17.7 km/h 17.7 km/h 68% 0 mm
23:53 21.2 °C 14.8 °C 1016.5 hPa ESE 14.5 km/h 20.9 km/h 67% 0 mm
23:58 21.3 °C 14.9 °C 1016.8 hPa SE 11.3 km/h 22.5 km/h 67% 0 mm
Compliments of Weather Underground